Weather History for Augusta, ME

Change the Weather History Date:

Sunday, September 30, 2012

  Actual Average Record
Temperature  
Mean Temperature 53 °F -  
Max Temperature 55 °F 61 °F 72 °F (2010)
Min Temperature 51 °F 43 °F 37 °F (2001)
Degree Days  
Heating Degree Days 12    
Growing Degree Days 3 (Base 50)    
Moisture  
Dew Point 53 °F    
Average Humidity 98    
Maximum Humidity 100    
Minimum Humidity 94    
Precipitation  
Precipitation 1.08 in - - ()
Sea Level Pressure  
Sea Level Pressure 29.78 in    
Wind  
Wind Speed 7 mph (NNW)    
Max Wind Speed 15 mph    
Max Gust Speed -    
Visibility 4 miles    
Events Fog , Rain    
Averages and records for this station are not official NWS values.
T = Trace of Precipitation, MM = Missing Value Source: NWS Daily Summary

Daily Weather History Graph

Daily Weather History Graph

Search for Another Location

Airport:

Trip Planner

Search our weather history database for the weather conditions in past years. The results will help you decide how hot, cold, wet, or windy it might be!

Date:

Astronomy

Sep. 30, 2012 Rise Set
Actual Time 6:36 AM EDT 6:20 PM EDT
Civil Twilight 6:07 AM EDT 6:49 PM EDT
Nautical Twilight 5:33 AM EDT 7:23 PM EDT
Astronomical Twilight 4:59 AM EDT 7:57 PM EDT
Moon 6:18 PM EDT (9/30) 7:06 AM EDT (9/30)
Length of Visible Light 12h 42m
Length of Day
11h 44m
Full, 100% of the Moon is Illuminated
Sep 30
Full
Oct 8
Last Quarter
Oct 15
New
Oct 21
First Quarter
Oct 29
Full

Hourly Weather History & Observations

Time (EDT) Temp. Dew Point Humidity Pressure Visibility Wind Dir Wind Speed Gust Speed Precip Events Conditions
12:23 AM 51.8 °F 51.8 °F 100% 29.92 in 3.0 mi North 8.1 mph - 0.01 in Rain Light Rain
12:38 AM 51.8 °F 51.8 °F 100% 29.92 in 2.5 mi North 9.2 mph - 0.01 in Rain Light Rain
12:53 AM 52.0 °F 51.1 °F 97% 29.92 in 2.0 mi North 8.1 mph - 0.01 in Rain Light Rain
1:21 AM 51.8 °F 51.8 °F 100% 29.91 in 3.0 mi North 8.1 mph - 0.01 in Rain Light Rain
1:30 AM 51.8 °F 51.8 °F 100% 29.91 in 2.5 mi North 6.9 mph - 0.01 in Rain Light Rain
1:53 AM 52.0 °F 51.1 °F 97% 29.92 in 2.0 mi North 6.9 mph - 0.01 in Rain Light Rain
2:53 AM 52.0 °F 51.1 °F 97% 29.90 in 2.0 mi NNE 8.1 mph - 0.03 in Rain Light Rain
3:53 AM 52.0 °F 52.0 °F 100% 29.91 in 2.5 mi North 5.8 mph - 0.01 in Rain Light Rain
4:01 AM 51.8 °F 51.8 °F 100% 29.90 in 4.0 mi North 6.9 mph - 0.00 in   Overcast
4:25 AM 51.8 °F 51.8 °F 100% 29.90 in 2.5 mi North 6.9 mph - 0.00 in   Overcast
4:53 AM 52.0 °F 52.0 °F 100% 29.90 in 2.0 mi North 6.9 mph - 0.00 in   Overcast
5:27 AM 51.8 °F 51.8 °F 100% 29.89 in 1.8 mi North 9.2 mph - N/A   Overcast
5:49 AM 51.8 °F 51.8 °F 100% 29.89 in 2.0 mi North 6.9 mph - N/A   Overcast
5:53 AM 52.0 °F 52.0 °F 100% 29.89 in 1.8 mi North 6.9 mph - N/A   Overcast
6:53 AM 52.0 °F 52.0 °F 100% 29.90 in 1.0 mi NNE 6.9 mph - 0.01 in   Mist
7:10 AM 51.8 °F 51.8 °F 100% 29.88 in 0.5 mi NNE 6.9 mph - N/A Fog Fog
7:49 AM 53.6 °F 51.8 °F 94% 29.89 in 0.2 mi NNE 8.1 mph - N/A Fog Fog
7:53 AM 53.1 °F 52.0 °F 96% 29.89 in 0.2 mi NNE 5.8 mph - N/A Fog Fog
8:53 AM 53.1 °F 53.1 °F 100% 29.89 in 0.2 mi NNE 6.9 mph - 0.00 in Fog , Rain Light Rain
9:28 AM 53.6 °F 53.6 °F 100% 29.88 in 0.8 mi NNE 6.9 mph - 0.02 in Rain Light Rain
9:36 AM 53.6 °F 53.6 °F 100% 29.88 in 1.5 mi NNE 6.9 mph - 0.03 in Rain Light Rain
9:50 AM 53.6 °F 53.6 °F 100% 29.87 in 2.5 mi NNE 6.9 mph - 0.04 in Rain Light Rain
9:53 AM 53.6 °F 53.6 °F 100% 29.87 in 2.5 mi NNE 6.9 mph - N/A Rain Light Rain
10:04 AM 53.6 °F 53.6 °F 100% 29.86 in 3.0 mi NNE 8.1 mph - 0.01 in Rain Light Rain
10:53 AM 53.6 °F 53.6 °F 100% 29.83 in 7.0 mi North 5.8 mph - N/A Rain Light Rain
11:43 AM 53.6 °F 53.6 °F 100% 29.81 in 2.5 mi North 9.2 mph - 0.13 in Rain Rain
11:50 AM 53.6 °F 53.6 °F 100% 29.80 in 4.0 mi North 8.1 mph - 0.14 in Rain Rain
11:53 AM 54.0 °F 54.0 °F 100% 29.81 in 5.0 mi North 6.9 mph - 0.15 in Rain Light Rain
12:53 PM 54.0 °F 54.0 °F 100% 29.77 in 4.0 mi North 5.8 mph - 0.16 in Rain Rain
1:53 PM 55.0 °F 54.0 °F 96% 29.73 in 8.0 mi North 9.2 mph - 0.06 in Rain Light Rain
2:26 PM 55.4 °F 55.4 °F 100% 29.70 in 2.0 mi North 6.9 mph - 0.08 in Rain Rain
2:40 PM 55.4 °F 55.4 °F 100% 29.70 in 1.5 mi North 6.9 mph - 0.14 in Rain Heavy Rain
2:53 PM 55.9 °F 55.0 °F 97% 29.70 in 1.2 mi North 6.9 mph - 0.22 in Rain Heavy Rain
3:04 PM 55.4 °F 55.4 °F 100% 29.69 in 1.8 mi North 4.6 mph - 0.05 in Rain Rain
3:18 PM 55.4 °F 55.4 °F 100% 29.69 in 1.5 mi WSW 5.8 mph - 0.10 in Rain Rain
3:32 PM 55.4 °F 55.4 °F 100% 29.69 in 2.0 mi WSW 6.9 mph - 0.14 in Rain Rain
3:35 PM 55.4 °F 55.4 °F 100% 29.69 in 1.8 mi WSW 6.9 mph - 0.16 in Rain Rain
3:48 PM 55.4 °F 55.4 °F 100% 29.68 in 2.0 mi WSW 8.1 mph - 0.21 in Rain Rain
3:53 PM 55.9 °F 55.0 °F 97% 29.68 in 2.5 mi WSW 8.1 mph - 0.22 in Rain Rain
3:58 PM 55.4 °F 53.6 °F 94% 29.68 in 3.0 mi WSW 10.4 mph - 0.01 in Rain Rain
4:16 PM 55.4 °F 53.6 °F 94% 29.67 in 1.8 mi NW 5.8 mph - 0.09 in Rain Heavy Rain
4:26 PM 55.4 °F 53.6 °F 94% 29.65 in 2.0 mi NNW 8.1 mph - 0.13 in Rain Rain
4:43 PM 55.4 °F 53.6 °F 94% 29.63 in 3.0 mi North 15.0 mph - 0.18 in Rain Rain
4:53 PM 55.0 °F 54.0 °F 96% 29.62 in 5.0 mi NNW 11.5 mph - 0.19 in Rain Rain
5:53 PM 55.9 °F 55.0 °F 97% 29.63 in 10.0 mi Calm Calm - 0.01 in   Mostly Cloudy
6:11 PM 55.4 °F 53.6 °F 94% 29.62 in 10.0 mi SSW 3.5 mph - N/A   Scattered Clouds
6:22 PM 55.4 °F 55.4 °F 100% 29.62 in 10.0 mi SSW 4.6 mph - N/A   Mostly Cloudy
6:53 PM 55.0 °F 55.0 °F 100% 29.64 in 10.0 mi SW 6.9 mph - N/A   Overcast
7:53 PM 55.9 °F 55.0 °F 97% 29.64 in 10.0 mi SW 8.1 mph - N/A   Overcast
8:05 PM 55.4 °F 53.6 °F 94% 29.64 in 10.0 mi SW 6.9 mph - N/A   Overcast
8:53 PM 55.0 °F 54.0 °F 96% 29.65 in 10.0 mi SW 8.1 mph - N/A   Overcast
9:53 PM 54.0 °F 53.1 °F 97% 29.64 in 10.0 mi South 6.9 mph - N/A   Overcast
10:53 PM 53.1 °F 52.0 °F 96% 29.65 in 10.0 mi SSW 6.9 mph - N/A   Overcast
11:53 PM 53.1 °F 52.0 °F 96% 29.65 in 10.0 mi SSW 5.8 mph - N/A   Overcast